TimeCDT,TemperatureF,Dew PointF,Humidity,Sea Level PressureIn,VisibilityMPH,Wind Direction,Wind SpeedMPH,Gust SpeedMPH,PrecipitationIn,Events,Conditions,WindDirDegrees,DateUTC
12:51 AM,61.0,60.1,97,30.01,10.0,ESE,3.5,-,N/A,,Clear,110,2013-04-08 05:51:00
1:51 AM,61.0,60.1,97,29.99,8.0,ESE,5.8,-,N/A,,Clear,120,2013-04-08 06:51:00
2:51 AM,61.0,60.1,97,29.98,8.0,ESE,3.5,-,N/A,,Clear,120,2013-04-08 07:51:00
3:26 AM,60.8,60.8,100,29.97,1.8,East,3.5,-,N/A,,Clear,80,2013-04-08 08:26:00
3:51 AM,60.1,59.0,96,29.97,2.0,Calm,Calm,-,N/A,,Clear,0,2013-04-08 08:51:00
4:49 AM,60.8,60.8,100,29.97,1.8,East,3.5,-,N/A,,Partly Cloudy,90,2013-04-08 09:49:00
4:51 AM,60.1,60.1,100,29.97,1.2,East,3.5,-,N/A,,Partly Cloudy,100,2013-04-08 09:51:00
4:53 AM,60.8,60.8,100,29.97,0.8,East,3.5,-,N/A,,Mist,100,2013-04-08 09:53:00
5:10 AM,60.8,60.8,100,29.97,0.2,East,4.6,-,N/A,Fog,Fog,90,2013-04-08 10:10:00
5:25 AM,60.8,60.8,100,29.97,0.2,East,4.6,-,N/A,Fog,Fog,80,2013-04-08 10:25:00
5:51 AM,60.1,60.1,100,29.98,0.2,East,4.6,-,N/A,Fog,Fog,90,2013-04-08 10:51:00
6:40 AM,60.8,60.8,100,29.99,0.2,East,4.6,-,N/A,Fog,Fog,90,2013-04-08 11:40:00
6:51 AM,60.1,60.1,100,29.99,0.2,East,5.8,-,N/A,Fog,Fog,90,2013-04-08 11:51:00
7:04 AM,60.8,60.8,100,30.00,0.2,East,4.6,-,N/A,Fog,Fog,90,2013-04-08 12:04:00
7:40 AM,60.8,60.8,100,30.01,0.2,East,3.5,-,N/A,Fog,Fog,90,2013-04-08 12:40:00
7:47 AM,62.1,62.1,100,30.02,1.2,East,3.5,-,N/A,,Mostly Cloudy,90,2013-04-08 12:47:00
7:53 AM,62.6,62.6,100,30.02,2.5,East,3.5,-,N/A,,Scattered Clouds,90,2013-04-08 12:53:00
8:02 AM,62.6,62.6,100,30.02,3.0,East,4.6,-,N/A,,Partly Cloudy,100,2013-04-08 13:02:00
8:51 AM,66.0,64.9,96,30.03,6.0,East,6.9,-,N/A,,Clear,100,2013-04-08 13:51:00
9:51 AM,71.1,66.9,87,30.04,10.0,ESE,9.2,-,N/A,,Clear,110,2013-04-08 14:51:00
10:51 AM,75.0,66.0,73,30.04,10.0,SE,11.5,-,N/A,,Partly Cloudy,130,2013-04-08 15:51:00
11:51 AM,77.0,66.0,69,30.04,10.0,SSE,11.5,19.6,N/A,,Clear,150,2013-04-08 16:51:00
12:51 PM,77.0,66.0,69,30.04,10.0,SE,10.4,17.3,N/A,,Mostly Cloudy,130,2013-04-08 17:51:00
1:51 PM,77.0,66.0,69,30.03,10.0,SE,13.8,19.6,N/A,,Mostly Cloudy,130,2013-04-08 18:51:00
2:15 PM,75.2,66.2,73,30.02,10.0,ESE,11.5,-,N/A,,Mostly Cloudy,110,2013-04-08 19:15:00
2:39 PM,75.2,66.2,73,30.01,10.0,ESE,11.5,-,N/A,,Mostly Cloudy,110,2013-04-08 19:39:00
2:51 PM,75.9,66.9,74,30.01,10.0,ESE,10.4,-,N/A,,Mostly Cloudy,110,2013-04-08 19:51:00
3:51 PM,77.0,66.9,71,29.99,10.0,SE,11.5,21.9,N/A,,Mostly Cloudy,130,2013-04-08 20:51:00
4:10 PM,75.2,66.2,73,29.99,10.0,SE,13.8,-,N/A,,Mostly Cloudy,140,2013-04-08 21:10:00
4:18 PM,75.2,68.0,78,29.99,10.0,SE,12.7,-,N/A,,Mostly Cloudy,130,2013-04-08 21:18:00
4:51 PM,75.9,66.9,74,29.98,10.0,SE,16.1,20.7,N/A,,Mostly Cloudy,130,2013-04-08 21:51:00
5:51 PM,73.9,68.0,82,29.99,10.0,ESE,10.4,-,N/A,,Mostly Cloudy,120,2013-04-08 22:51:00
6:51 PM,72.0,66.9,84,30.01,10.0,SE,5.8,-,N/A,,Mostly Cloudy,130,2013-04-08 23:51:00
7:51 PM,69.1,66.9,93,30.01,8.0,ESE,6.9,-,N/A,,Mostly Cloudy,110,2013-04-09 00:51:00
8:51 PM,68.0,66.9,96,30.01,6.0,ESE,8.1,-,N/A,,Clear,110,2013-04-09 01:51:00
9:51 PM,66.9,66.0,97,30.01,7.0,ESE,8.1,-,N/A,,Clear,110,2013-04-09 02:51:00
10:51 PM,68.0,66.9,96,29.98,7.0,ESE,12.7,-,N/A,,Scattered Clouds,110,2013-04-09 03:51:00
11:03 PM,68.0,66.2,94,29.98,7.0,ESE,16.1,21.9,N/A,,Mostly Cloudy,120,2013-04-09 04:03:00
11:51 PM,69.1,68.0,96,29.96,6.0,ESE,15.0,24.2,N/A,,Overcast,120,2013-04-09 04:51:00